Location: Hamburg
(53.5500°N, 10.0000°E)
Time: 05:04:01
(UTC+02:00)

Vanguard 1 Rocket - Visible Passes

Search period start: 23 October 2014 00:00
Search period end: 01 November 2014 23:00
Orbit: 654 x 4226 km, 34.3° (Epoch: 21 October)

Date Brightness Start Highest point End Pass type
(mag) Time Alt. Az. Time Alt. Az. Time Alt. Az.
23 Oct 10.9 01:47:07 11° ESE 01:47:07 11° ESE 01:47:19 10° ESE visible
23 Oct 9.9 04:04:26 30° S 04:04:26 30° S 04:11:52 10° SE visible
23 Oct 9.9 06:21:45 13° WSW 06:27:56 20° SSW 06:33:33 10° SSE visible
24 Oct 10.3 02:57:35 24° SE 02:57:35 24° SE 03:02:00 10° ESE visible
24 Oct 9.8 05:14:54 26° SW 05:17:36 28° SSW 05:24:58 10° SE visible
25 Oct 10.8 01:50:45 12° ESE 01:50:45 12° ESE 01:51:36 10° ESE visible
25 Oct 9.9 04:08:04 32° S 04:08:04 32° S 04:15:43 10° SE visible
25 Oct 10.0 06:25:23 14° WSW 06:31:10 19° SW 06:36:50 10° S visible
26 Oct 10.3 02:01:14 26° SE 02:01:14 26° SE 02:05:57 10° ESE visible
26 Oct 9.9 04:18:33 26° SW 04:20:53 27° SSW 04:28:32 10° SSE visible
27 Oct 10.8 00:54:25 14° ESE 00:54:25 14° ESE 00:55:40 10° ESE visible
27 Oct 9.9 03:11:44 32° S 03:11:44 32° S 03:19:26 10° SE visible
27 Oct 10.1 05:29:04 13° WSW 05:34:16 17° SW 05:39:49 10° S visible
28 Oct 10.3 02:04:56 26° SE 02:04:56 26° SE 02:09:46 10° ESE visible
28 Oct 10.0 04:22:16 25° SW 04:24:04 26° SSW 04:31:57 10° SSE visible
28 Oct 11.7 22:00:57 10° SSW 22:02:04 11° S 22:02:04 11° S visible
29 Oct 10.8 00:58:09 14° ESE 00:58:09 14° ESE 00:59:34 10° ESE visible
29 Oct 10.0 03:15:29 32° S 03:15:29 32° S 03:23:02 10° SE visible
29 Oct 10.3 05:32:49 13° WSW 05:37:14 15° SW 05:42:25 10° SSW visible
29 Oct 11.5 20:51:49 10° S 20:55:36 14° SSE 20:55:36 14° SSE visible
30 Oct 10.3 02:08:44 26° SE 02:08:44 26° SE 02:13:28 10° SE visible
30 Oct 10.1 04:26:04 24° SW 04:27:06 24° SW 04:35:09 10° SSE visible
30 Oct 11.5 19:46:53 10° SSE 19:49:08 11° SE 19:49:08 11° SE visible
30 Oct 11.5 22:01:53 10° SSW 22:06:29 17° SSW 22:06:29 17° SSW visible
31 Oct 10.9 01:02:00 14° ESE 01:02:00 14° ESE 01:03:20 10° ESE visible
31 Oct 10.1 03:19:20 30° S 03:19:20 30° S 03:26:29 10° SE visible
31 Oct 10.5 05:36:40 12° WSW 05:40:03 13° SW 05:44:21 10° SSW visible
31 Oct 11.4 20:51:46 10° S 21:00:01 19° SSE 21:00:01 19° SSE visible
31 Oct 11.4 23:15:26 10° SW 23:17:22 13° SW 23:17:22 13° SW visible
01 Nov 10.4 02:12:38 25° SSE 02:12:38 25° SSE 02:17:03 10° SE visible
01 Nov 10.3 04:29:58 22° SW 04:30:01 22° SW 04:38:06 10° S visible
01 Nov 11.4 19:44:07 10° SSE 19:53:32 16° SE 19:53:32 16° SE visible
01 Nov 11.4 22:03:21 10° SSW 22:10:53 22° SSW 22:10:53 22° SSW visible
